Lapse_Rate
8.0 9.3 9.3 9.1 9.0 8.9 8.9 9.2 8.1 7.7 7.0 7.0 7.3 6.0 7.4 8.8 8.8 9.1 8.5 8.3 8.0 8.8 6.6 6.2 6.6 6.9 5.4 5.8 5.8 6.0 8.5 8.5 6.9 6.9 6.7 6.2 5.6 5.8 6.5 6.4 6.4 6.5 6.5 6.3 6.1 5.7 5.8
8.9 9.4 8.9 9.0 9.1 9.1 8.9 9.4 9.0 8.1 7.5 7.2 7.3 7.5 8.5 8.4 8.5 8.6 8.3 7.6 7.8 7.7 7.2 8.1 6.2 6.1 6.0 6.5 5.6 4.8 6.4 6.6 6.4 6.4 6.7 6.5 6.1 5.9 6.0 6.4 6.5 6.3 6.3 6.0 5.6 5.5 6.1
9.4 9.3 8.8 8.8 8.9 9.3 9.0 9.0 9.2 9.2 8.1 7.4 7.4 7.5 8.8 8.1 7.9 7.9 7.7 6.9 6.8 6.9 6.8 6.6 5.7 6.5 6.5 6.0 5.1 5.3 5.7 6.7 6.7 6.5 6.3 6.6 6.6 6.0 6.2 6.5 6.2 6.1 6.5 6.5 6.3 6.4 6.4
9.4 9.3 8.8 8.9 9.3 9.2 9.3 9.1 9.0 9.3 9.2 8.6 7.9 8.0 7.8 7.8 7.3 7.1 7.3 6.6 6.2 6.4 6.1 6.2 6.5 5.8 6.5 6.0 5.5 6.2 6.6 7.1 6.8 6.8 6.3 6.4 6.4 6.1 6.4 6.5 6.1 6.5 6.5 6.5 6.5 6.5 6.3
9.4 9.1 9.1 9.2 9.2 9.0 8.9 8.4 9.2 9.1 8.8 9.0 8.5 7.8 8.1 7.7 7.2 6.9 6.5 6.8 6.4 7.4 6.8 7.2 6.2 6.3 6.8 7.0 6.8 6.2 6.5 7.3 6.9 6.8 7.1 7.7 6.5 6.1 6.3 6.5 6.5 6.5 6.5 6.5 6.5 6.5 6.5
9.3 9.0 9.3 9.1 8.9 8.5 7.9 7.3 8.9 9.0 9.0 8.0 8.5 8.1 7.4 7.6 7.3 7.0 6.0 6.7 6.7 6.5 7.4 7.5 6.3 5.9 6.5 6.8 6.2 8.0 7.9 7.5 6.7 6.5 6.5 6.1 4.9 6.5 6.5 6.5 6.5 6.5 6.5 6.5 6.5 6.5 6.5
9.3 9.1 8.7 8.8 8.9 8.1 8.6 7.1 8.0 8.4 7.7 7.6 7.6 7.9 7.9 7.4 7.3 6.4 3.6 4.5 5.1 6.0 5.8 6.9 6.6 7.2 7.4 6.8 7.5 7.3 8.0 7.4 7.5 6.3 6.5 6.3 6.5 6.5 6.5 6.5 6.5 6.5 6.5 6.5 6.5 6.5 6.5
8.3 8.8 8.6 8.7 8.3 8.3 8.1 8.7 6.6 7.1 7.5 7.5 7.5 7.7 8.0 7.9 7.4 6.7 3.1 4.7 5.8 5.1 6.7 7.3 6.7 7.2 7.2 7.8 7.3 7.5 8.1 6.8 6.8 6.5 6.5 6.5 6.5 6.5 6.5 6.5 6.5 6.5 6.5 6.5 6.5 6.5 6.5
6.6 8.8 8.5 8.4 8.1 8.3 8.2 7.4 5.2 5.0 5.7 6.6 7.1 7.4 7.8 8.1 7.5 4.2 5.3 6.1 4.6 4.5 6.7 7.0 6.8 7.3 7.7 7.7 7.2 7.2 7.5 6.9 6.5 6.5 6.5 6.5 6.5 6.5 6.5 6.5 6.5 6.5 6.5 6.5 6.5 6.5 6.5
5.6 8.6 8.3 8.5 7.9 7.9 8.5 6.3 4.5 4.2 4.2 5.2 6.2 6.9 6.9 7.3 6.1 5.0 5.5 6.5 5.1 5.1 6.5 6.5 6.7 6.7 7.7 7.5 6.7 7.3 7.7 7.1 6.6 6.5 6.5 6.5 6.5 6.5 6.5 6.5 6.5 6.5 6.5 6.5 6.5 6.5 6.5
5.3 5.2 8.8 8.4 7.9 7.7 8.2 7.3 5.7 4.0 4.3 4.8 5.6 6.2 6.2 5.5 5.3 6.2 6.7 6.0 5.3 4.8 6.5 6.5 6.7 7.1 7.4 6.9 6.8 6.9 7.6 7.3 6.5 6.5 6.5 6.5 6.5 6.5 6.5 6.5 6.5 6.5 6.5 6.5 6.5 6.5 6.5
5.3 5.3 6.2 8.5 8.0 7.6 7.5 8.2 6.8 4.9 4.1 4.3 4.9 5.7 5.4 4.2 4.4 6.3 5.7 4.6 4.2 6.5 6.5 6.5 6.7 6.6 6.5 6.9 6.9 7.1 7.1 7.2 6.7 6.5 6.5 6.5 6.3 6.5 6.5 6.5 6.5 6.5 6.5 6.5 6.5 6.5 6.5
5.1 5.1 4.7 6.0 8.0 7.9 7.5 7.6 6.7 6.2 4.7 3.7 4.1 5.1 4.7 4.5 4.5 4.3 4.3 5.0 6.5 6.5 6.5 6.5 6.5 6.5 6.5 6.5 6.5 6.5 6.5 6.5 6.5 6.5 6.5 6.5 6.5 6.5 6.6 6.5 6.5 6.5 6.5 6.5 6.5 6.5 6.5
4.4 4.6 4.8 3.9 6.1 6.6 7.2 6.4 6.8 6.0 5.1 5.1 3.4 3.1 3.0 4.2 4.0 4.5 3.8 6.4 6.5 6.5 6.5 6.5 6.5 6.5 6.5 6.5 6.5 6.5 6.5 6.5 6.5 6.5 6.5 6.5 6.5 6.5 6.5 6.5 6.5 6.5 6.5 6.5 6.5 6.5 6.5
4.8 4.1 4.1 4.3 4.1 5.0 4.3 4.4 4.7 5.3 5.1 4.6 4.2 -0.1 1.1 2.1 2.4 2.2 3.5 6.5 6.5 6.5 6.5 6.5 6.5 6.5 6.5 6.5 6.5 6.5 6.5 6.5 6.5 6.5 6.5 6.5 6.5 6.5 6.5 6.5 6.5 6.5 6.5 6.5 6.5 6.5 6.5
5.1 4.2 3.9 3.8 3.7 3.9 3.9 4.0 4.1 4.2 4.2 3.0 0.2 0.0 0.9 1.4 0.6 0.5 5.7 6.5 6.5 6.5 6.5 6.5 6.5 6.5 6.5 6.5 6.5 6.5 6.5 6.5 6.5 6.5 6.6 6.5 6.5 6.5 6.5 6.4 6.4 6.5 6.5 6.5 6.5 6.5 6.5
4.7 4.6 4.2 3.8 3.5 3.4 3.7 3.6 3.9 3.5 3.2 2.1 -0.7 1.8 2.7 -0.2 -0.2 1.6 6.5 6.5 6.5 6.0 6.3 6.5 6.5 6.5 6.5 6.5 6.5 6.5 6.5 6.5 6.5 6.5 6.6 6.5 6.5 6.5 6.5 6.5 6.5 6.5 6.5 6.5 6.5 6.5 6.5
5.4 4.6 4.2 4.0 3.6 3.6 3.5 4.0 3.4 3.5 2.8 0.4 -0.2 6.2 2.3 -0.2 3.9 4.9 6.5 6.5 6.5 6.4 6.3 6.5 6.5 6.5 6.5 6.5 6.5 6.5 6.5 6.5 5.9 6.2 6.5 6.5 6.5 6.5 6.5 6.5 6.5 6.5 6.5 6.5 6.5 6.5 6.5
4.1 5.0 4.4 3.9 3.8 3.9 3.9 4.0 4.1 3.6 3.1 0.8 1.2 -0.4 1.4 0.6 6.5 6.5 6.3 6.5 6.4 6.5 6.5 6.5 6.5 6.5 6.5 6.5 6.5 6.5 6.5 6.4 6.3 6.4 6.5 6.5 6.5 6.5 6.5 6.5 6.5 6.5 6.5 6.5 6.5 6.5 6.5
3.9 4.1 4.9 3.9 3.7 3.8 4.1 3.8 4.6 4.4 4.1 0.7 1.7 6.5 1.8 1.4 4.3 6.4 6.5 6.5 6.5 5.5 6.4 6.2 6.5 6.4 6.5 6.5 6.5 6.5 6.5 6.5 5.7 6.4 6.7 6.3 6.5 6.5 6.5 6.5 6.5 6.5 6.5 6.5 6.5 6.5 6.5
3.5 4.0 4.2 4.4 3.8 3.7 4.2 3.8 4.3 4.0 4.0 1.3 1.0 5.6 5.5 6.5 6.0 6.4 6.4 6.5 6.5 6.5 5.8 5.2 6.5 6.5 6.5 6.5 6.5 6.5 6.5 6.5 6.4 5.9 6.4 6.5 6.5 6.5 6.5 6.5 6.5 6.5 6.5 6.5 6.5 6.5 6.5
3.2 3.8 4.2 4.6 4.0 3.7 4.0 3.8 3.2 3.4 3.2 0.5 2.8 3.9 3.4 4.9 5.2 6.4 6.5 6.5 6.5 6.5 6.5 6.5 6.5 6.5 6.5 6.5 6.5 6.5 6.5 6.5 6.5 6.5 6.5 6.5 6.5 6.5 6.5 6.5 6.5 6.5 6.5 6.5 6.5 6.5 6.5
3.2 3.6 4.0 4.4 3.9 4.3 3.4 3.9 3.2 3.6 2.6 0.9 1.0 2.3 3.2 5.6 6.2 6.5 6.5 6.5 6.5 6.3 6.5 6.2 6.4 6.5 6.5 6.5 5.9 5.1 5.0 5.0 5.9 6.5 6.5 6.5 6.5 6.5 6.5 6.5 6.5 6.5 6.5 6.5 6.5 6.5 6.5
4.0 3.7 3.9 4.2 3.8 4.0 3.8 3.7 3.5 3.8 2.8 0.7 0.8 1.5 2.9 6.5 6.5 6.5 6.4 6.4 6.5 6.4 6.5 5.8 5.9 6.5 6.2 3.6 3.4 4.7 4.9 5.0 5.6 6.2 5.8 6.5 6.5 6.5 6.5 6.5 6.5 6.5 6.5 6.5 6.5 6.5 6.5
3.9 3.5 4.0 4.1 3.5 3.5 4.1 3.6 4.0 4.1 3.8 1.3 0.8 2.3 2.6 6.5 5.9 6.4 6.1 6.3 5.9 5.1 6.3 6.1 5.7 5.4 2.9 4.5 6.5 6.5 6.5 6.5 6.5 6.5 6.5 6.4 6.5 6.5 6.5 6.5 6.5 6.5 6.5 6.5 6.5 6.5 6.5
3.8 4.1 4.5 4.4 3.4 3.5 4.1 4.4 4.2 4.3 4.3 1.3 1.0 0.9 2.3 4.2 6.1 5.5 6.0 5.9 6.5 6.5 6.5 5.6 4.6 2.9 4.0 6.1 6.5 6.5 6.5 6.5 6.5 6.5 6.5 6.5 6.5 6.5 6.5 6.5 6.5 6.5 6.5 6.2 6.5 6.5 6.4
4.0 4.5 4.1 4.3 4.1 3.6 4.1 4.8 4.9 4.7 4.2 2.2 1.5 1.4 2.4 3.7 2.8 3.7 5.4 6.1 4.7 5.6 6.5 5.3 4.7 4.8 4.2 6.5 6.5 6.5 6.5 6.5 6.5 6.5 6.5 6.5 6.5 6.5 6.5 6.5 6.5 6.5 6.4 5.9 6.5 6.5 6.1
3.8 4.1 4.7 4.4 4.5 3.8 4.1 4.5 5.1 5.2 4.8 2.6 1.9 1.6 2.7 2.5 2.4 2.6 3.8 3.8 4.2 4.3 6.5 4.8 5.8 5.5 6.1 6.5 6.5 6.5 6.5 6.5 6.5 6.5 6.5 6.5 6.5 6.5 6.5 6.5 6.5 5.8 6.4 6.5 6.0 4.4 5.1
3.7 4.3 4.4 4.5 4.7 4.1 4.2 4.5 5.3 5.6 5.1 4.1 2.8 1.7 1.6 2.8 3.0 1.8 2.4 3.4 4.0 3.8 3.8 3.1 5.1 5.1 5.1 6.5 6.5 6.5 6.5 6.5 6.5 6.5 6.5 6.5 6.5 6.5 6.5 6.5 5.6 3.9 4.0 4.0 2.9 3.8 4.4
Wind_Speed
30 30 30 29 27 30 33 37 37 43 52 17 16 8 2 7 7 6 7 8 10 9 11 14 13 14 8 5 2 12 3 13 11 7 4 4 5 3 4 2 1 1 3 4 5 9 6
29 27 26 27 28 30 32 34 36 36 45 44 33 21 11 13 10 9 8 9 12 12 10 11 20 9 3 4 3 13 12 6 9 6 4 4 3 4 5 2 1 1 3 8 6 10 5
27 26 27 26 27 30 31 32 33 34 29 28 23 19 15 12 10 10 10 12 14 15 13 10 1 3 4 6 1 8 11 3 3 4 4 3 4 5 2 2 1 3 6 7 5 2 5
26 26 26 26 28 29 30 31 29 30 30 21 15 16 16 15 14 15 14 16 18 17 8 9 12 2 5 2 6 7 7 5 7 7 6 5 7 5 3 2 4 4 2 5 3 1 3
27 27 26 25 28 28 28 28 28 25 25 23 22 20 18 17 18 18 17 14 14 13 8 17 5 2 6 3 4 5 7 5 6 5 6 4 5 2 3 3 4 4 2 3 8 2 2
27 26 26 27 28 28 27 26 25 23 22 21 21 19 20 18 17 15 15 9 11 11 12 7 3 6 1 4 4 2 2 6 6 5 4 5 4 3 3 3 2 2 2 5 7 5 3
27 26 28 29 28 28 26 24 24 23 19 19 19 19 18 19 17 13 6 3 5 5 6 8 5 7 6 8 3 1 4 5 3 5 3 1 4 4 7 5 4 1 3 10 13 14 9
25 26 28 29 30 29 26 23 23 23 18 16 17 17 18 11 20 17 5 5 3 2 7 12 8 9 8 4 5 2 3 3 2 3 2 4 4 8 6 5 5 6 8 12 13 12 6
24 25 27 30 31 29 26 25 20 18 18 12 15 16 16 5 8 8 9 5 2 1 4 7 6 6 4 4 4 6 4 2 2 3 5 4 3 5 6 2 4 6 8 11 12 11 13
23 24 26 27 30 29 26 24 21 20 17 12 14 15 16 2 5 4 4 7 1 2 4 6 5 4 1 2 4 2 1 2 1 5 4 4 5 4 5 5 7 11 9 15 16 9 4
23 23 26 27 30 30 25 21 23 22 19 15 13 13 13 13 1 4 5 5 3 1 5 4 2 4 5 4 5 1 2 3 3 2 3 6 2 3 6 6 11 8 6 9 12 13 12
23 24 25 27 29 30 28 23 19 17 16 13 11 10 6 5 3 2 10 2 2 5 4 2 2 5 2 4 3 2 2 1 3 4 2 6 0 3 5 4 7 7 9 13 11 6 4
22 23 23 25 26 28 29 26 23 18 9 10 10 10 4 4 0 8 2 2 5 5 1 3 5 2 1 2 3 4 4 2 1 2 2 3 5 3 3 5 3 8 6 4 4 3 4
21 21 23 24 25 26 28 28 26 23 19 8 6 10 2 2 4 1 3 4 8 4 4 0 4 5 3 2 2 1 2 3 5 3 2 2 5 7 5 7 2 5 3 2 4 3 4
20 20 21 24 25 26 26 27 26 26 23 15 7 2 2 2 4 3 3 5 3 2 3 5 3 1 1 1 2 4 4 3 3 9 4 2 5 2 6 4 3 2 3 2 4 3 3
19 19 19 21 24 26 27 27 28 27 27 13 2 4 1 0 7 3 4 7 3 3 2 2 2 1 2 2 2 1 2 4 3 7 6 2 5 5 1 3 6 4 3 1 1 3 3
16 18 19 20 22 24 27 29 30 31 29 5 3 3 3 4 3 6 4 4 4 4 1 3 1 2 1 3 3 2 2 3 4 5 8 3 2 5 1 4 1 3 2 2 2 2 2
16 17 18 19 21 23 25 27 28 30 31 6 3 3 4 1 4 2 2 4 4 3 1 2 2 1 4 4 2 2 3 4 5 6 5 6 2 4 5 2 3 2 1 4 2 2 1
12 16 18 18 20 22 23 24 25 24 20 2 2 1 4 3 4 3 4 3 1 6 4 5 3 3 3 2 1 1 2 3 3 6 3 3 0 4 4 2 2 3 5 4 4 2 2
13 13 17 19 19 21 22 22 22 21 17 3 3 3 4 4 2 4 4 5 5 5 1 2 4 1 3 4 4 1 5 2 4 2 1 2 2 2 3 5 3 5 9 6 3 2 1
12 12 14 18 20 22 24 24 22 15 13 3 3 1 2 1 4 3 2 3 5 7 5 7 4 5 3 4 5 5 3 5 3 7 2 2 1 3 5 5 3 3 4 7 3 2 2
11 11 14 17 20 22 24 25 17 13 8 3 3 3 3 2 1 3 4 4 5 6 5 5 4 6 6 4 1 4 4 4 2 6 5 4 2 1 3 0 3 3 4 2 4 4 4
12 10 12 16 18 23 24 20 14 14 7 2 1 0 4 2 2 4 1 1 3 5 1 3 2 3 4 3 5 8 6 4 4 3 3 3 3 4 4 4 5 2 2 1 0 1 5
14 9 10 14 16 20 20 15 13 14 8 2 1 2 3 0 1 5 6 2 1 2 2 4 1 1 2 6 3 1 3 6 5 5 2 2 2 1 3 5 3 4 2 3 3 5 6
13 7 8 11 13 15 14 12 12 12 11 3 2 2 2 1 1 1 6 5 2 4 3 3 2 3 5 4 3 4 4 3 0 0 2 1 3 2 1 2 6 1 3 4 3 5 7
12 7 5 8 10 12 11 11 11 11 11 3 2 2 2 4 4 1 1 2 4 2 3 4 3 3 3 3 3 2 2 1 4 8 2 3 4 3 1 1 4 2 2 1 2 5 5
13 8 5 5 6 7 7 9 10 9 8 4 1 2 2 1 3 5 4 4 2 1 2 4 4 3 2 2 2 1 3 1 2 2 2 3 2 3 2 3 7 3 2 2 2 5 2
14 10 8 5 4 4 3 6 9 9 6 4 1 2 2 1 4 4 4 4 2 2 1 3 4 2 2 3 2 3 3 2 3 4 3 3 3 4 2 2 6 5 2 5 4 3 3
15 13 11 8 6 4 4 4 7 9 5 1 1 2 3 2 4 2 5 4 4 6 3 1 2 3 3 3 1 1 2 1 4 3 1 3 5 3 7 5 5 6 7 4 5 5 4
Wind_Direction
5 5 8 9 0 1 1 360 1 6 0 325 225 136 121 92 65 10 352 336 325 327 318 305 299 311 126 86 35 322 183 152 102 80 102 107 75 102 110 93 34 120 313 319 297 287 262
10 8 9 9 359 4 3 4 2 14 22 33 51 52 51 49 29 18 353 332 318 313 299 297 291 233 139 127 290 22 29 57 79 80 81 61 125 118 102 87 76 317 279 284 272 269 258
7 2 7 4 358 7 9 7 8 13 31 46 36 23 33 28 13 4 348 329 313 302 294 293 41 112 60 113 331 83 23 43 53 92 83 46 95 76 97 86 312 321 329 309 270 286 250
4 4 6 3 1 7 10 10 10 14 19 30 26 14 19 11 4 358 349 328 320 295 275 258 162 50 57 36 135 86 48 27 64 73 92 73 87 96 66 135 6 344 49 355 290 337 285
3 8 7 2 2 8 9 11 7 16 20 17 14 8 10 11 9 355 351 344 360 50 140 139 126 152 114 162 106 106 135 116 86 50 56 61 62 82 41 68 14 9 288 286 304 213 234
5 5 7 2 359 6 8 13 6 11 19 19 15 10 2 9 8 1 352 5 27 56 78 83 44 71 120 109 100 121 167 106 91 79 46 46 51 62 22 83 237 249 298 286 257 292 185
6 3 359 360 360 1 6 14 17 12 15 22 20 8 7 1 10 17 14 17 27 41 24 48 59 91 113 106 136 327 125 84 100 64 76 15 66 221 220 210 177 157 255 264 267 271 297
6 2 359 357 359 1 7 17 27 33 28 25 26 21 11 28 42 34 58 61 54 337 65 28 69 70 107 157 106 205 127 92 110 91 81 46 236 234 202 212 228 255 276 279 288 273 232
6 5 358 359 356 3 10 17 25 45 42 39 30 27 25 26 14 30 58 56 97 15 67 37 11 58 95 37 104 165 139 109 107 148 185 185 235 18 164 193 241 249 248 269 262 299 269
6 4 0 0 356 3 17 22 31 41 55 64 44 34 30 338 20 312 52 354 210 236 87 13 22 13 214 260 69 100 149 79 204 216 191 236 248 221 221 239 203 275 231 249 265 288 289
2 4 0 2 359 2 9 21 32 47 64 67 48 36 49 58 108 32 316 316 243 138 76 6 43 306 6 31 141 215 71 347 301 305 146 253 253 228 252 246 170 242 247 259 263 267 291
1 1 3 1 1 360 2 3 9 38 67 74 60 39 68 36 65 305 317 296 347 42 62 35 49 117 28 168 139 93 106 61 261 315 262 245 281 258 221 245 221 283 293 278 258 247 248
2 358 1 360 0 359 0 359 354 357 38 83 93 67 74 118 296 321 351 7 52 69 201 41 97 171 47 102 121 186 185 217 262 332 295 333 251 208 191 287 239 229 271 303 337 216 241
2 358 356 359 357 1 358 358 354 352 346 322 119 115 12 157 154 169 45 49 67 46 67 333 112 113 98 203 47 109 99 284 255 240 307 289 329 194 180 222 267 188 227 266 300 296 293
356 358 355 354 357 358 357 354 355 352 350 330 303 338 74 236 166 108 90 43 71 65 117 127 180 134 108 231 205 216 215 262 264 179 222 285 272 148 201 178 207 45 234 192 266 231 276
353 352 354 354 356 355 353 353 352 353 352 355 347 304 310 113 153 112 63 84 77 35 75 53 86 342 115 111 156 193 217 198 261 180 208 318 289 220 175 130 261 235 325 307 250 299 297
351 349 349 352 353 353 350 351 351 351 349 22 58 6 252 2 124 48 53 31 339 340 46 152 196 141 195 186 217 205 241 237 219 180 190 297 242 294 33 197 168 196 242 236 270 272 309
345 344 349 348 348 350 351 351 350 353 353 58 87 38 305 78 52 40 44 330 328 303 322 300 233 185 180 177 192 266 257 223 196 158 197 209 216 280 245 159 221 208 226 189 242 349 285
340 341 344 346 345 347 347 349 349 354 13 10 39 234 312 64 82 353 327 339 265 8 16 18 13 25 17 177 109 233 284 276 210 180 230 174 283 319 13 28 7 20 313 241 134 208 264
335 337 340 341 344 344 342 343 340 351 2 83 84 36 344 47 33 92 11 351 351 341 355 16 359 327 52 24 354 27 344 304 322 321 182 104 115 142 179 252 315 324 329 357 155 124 75
324 331 340 339 341 343 338 334 337 350 357 88 32 283 194 16 21 65 67 356 347 5 355 20 37 35 297 16 349 7 330 324 344 355 34 81 238 157 241 245 294 278 321 24 79 273 112
309 328 339 343 341 343 341 334 349 357 357 77 106 113 5 90 112 85 360 4 22 330 5 355 50 330 15 82 140 298 347 20 331 327 8 357 279 35 273 203 321 293 354 48 45 48 54
306 322 339 344 347 346 352 356 19 12 28 65 27 28 108 292 84 83 276 322 345 338 5 126 295 321 4 299 230 234 220 259 255 320 312 16 360 20 276 359 316 321 271 3 272 169 156
318 307 339 346 350 352 360 19 28 27 41 109 267 95 79 192 151 162 172 198 238 311 253 302 333 23 278 314 273 212 228 257 258 270 216 334 94 103 269 354 16 241 221 191 239 243 214
307 282 329 345 351 356 360 26 32 39 34 81 344 82 116 156 193 244 161 168 270 289 213 222 261 246 318 345 18 357 340 332 324 113 347 38 111 1 49 222 285 263 217 191 167 282 197
293 253 308 333 349 2 11 28 37 32 28 86 49 328 81 123 238 243 199 258 168 212 317 250 292 282 47 63 39 14 264 251 308 329 136 91 77 114 13 55 260 265 275 95 81 287 204
276 240 259 303 341 11 25 11 12 15 33 93 83 27 50 356 248 165 178 192 148 42 234 297 293 358 21 64 51 304 286 246 269 268 280 322 4 190 211 255 289 231 208 107 105 247 166
272 229 237 258 294 338 312 359 356 355 19 104 171 59 103 234 276 218 215 154 126 100 135 320 351 321 71 101 156 196 185 254 325 255 217 205 183 211 149 221 280 165 126 173 221 280 268
265 230 222 232 254 268 296 300 337 355 9 110 121 117 118 169 250 283 270 282 176 158 153 81 198 327 326 46 352 106 245 181 175 266 190 264 196 204 188 220 223 202 216 216 178 214 231